Showing default

GRUS-1A, 43890

Orbit data source: Space-Track

GRUS-1A, 43890 is a payload satellite in SSO that was launched on Thu, 27 Dec 2018 UTC via a SOYUZ-2-1A launch vehicle from the Vostochny Cosmodrome (VOSTO). Payload-class satellites include a variety of spacecraft equipped with specific instruments for various scientific and technological missions. These include communications satellites like Starlink; space stations such as the ISS; scientific satellites like the Hubble; Earth observation satellites from companies like Planet Labs, Umbra, and HawkEye 360; GPS; miniature CubeSats for education and research; and military/defense satellites.

Loading next visibility...
Identifier
43890, 2018-111Q
Orbit
SSO
Country
Flag of TBDTBD
Related business
Manufacturer
AXELSPACE
Mission
Operational Commercial Imaging
Bus & Motor
GRUS, Unknown motor
Mass
80 kg wet, 80 kg dry
Launch date (UTC)
2018-12-27 (7 years ago)
Launch vehicle
SOYUZ-2-1A
Launch site
Vostochny Cosmodrome (VOSTO)
Object type
Payload
Rocket body
Debris
Shape & HBR
Box, 0.3 m
Radar Cross Section
0.375 m², Medium (>0.1 m² and < 1m²)

Expand to show TLE details & history
Last TLE update: 11 hours ago

TLE from 11 hours ago
0 GRUS-1A
1 43890U 18111Q   25351.65010272  .00001372  00000-0  11910-3 0  9993
2 43890  97.4750 221.4386 0009869  55.7608 304.4549 14.98556817380517
Epoch: 2025-12-17T15:36Z
TLE epoch observation values (Epoch: 2025-12-17T15:36:08.875Z)
Latitude
0.00002°
Longitude
-99.1153°
Altitude
570.537 km
Speed
7.578 km/s
True Right ascension
14h 45m 45s
True Declination
0° 00' 00"
Sunlit
Object was in daylight at epoch
Visualization orbit readout
Latitude
Unknown
Longitude
Unknown
Altitude
Unknown
Speed
Unknown
Apparent Right ascension
Unknown
Apparent Declination
Unknown
Sunlit
N/A
Visualization observer readout
Local Sidereal Time
01:10:43
Azimuth
Unknown
Elevation
Unknown
Doppler factor
Unknown
Orbital elements
Apogee altitude
575.207 km
Perigee altitude
561.497 km
Semi-major axis
6,946.489 km
Eccentricity
0.00099
Inclination
97.475°
RAAN
221.4386°
Arg. of periapsis
55.7608°
True anomaly
304.36158°
Mean anomaly
304.4549°
Eccentric anomaly
304.40825°
Mean motion
3.74882 °/min
Orbital period
96.03 mins
BSTAR
0.0001191
Loading maneuver chart data...
Computing Atmospheric mass density...
Loading historical data...
Loading historical data...
Loading historical data...
Loading historical data...
Loading historical data...
Loading historical data...
Loading historical data...

Documentation

Showing up to 5 results
|